Torna al catalogo

STARLINK-34704

AttivoComunicazioniVLEO
NORAD 65746·PAYLOAD·🇺🇸 United States

Lanciato Sep 25, 2025 da Cape Canaveral Space Force Station

Loading…

Prossimi Passaggi (prossime 24 ore)

TLE

AggiornatoSource: CelesTrak SupGP

Epoca: Sep 15, 2026, 02:48 UTC

1 65746C 25216N   26258.11715278 -.00026496  00000+0 -78275-3 0  2587
2 65746  53.1572 170.9255 0001292  76.4207 344.3899 15.34406585    14

Traccia STARLINK-34704 in tempo reale con AllMySat

Download on the App Store